CAPE
1033 956 862 769 773 688 672 727 764 797 831 798 783 788 589 448 272 177 154 109 144 125
1084 1020 962 775 733 683 591 588 600 622 622 635 648 743 560 408 267 173 131 89 80 101
1204 1076 1021 899 799 721 580 513 457 477 524 555 590 561 469 414 329 256 145 92 112 117
1306 1246 1084 1014 944 863 722 621 540 457 497 666 710 626 505 473 452 444 288 150 82 25
1462 1348 1214 1066 1061 877 874 699 710 663 629 694 758 647 590 557 499 515 382 172 58 0
933 1599 1395 1273 1186 1070 951 903 865 814 739 749 793 686 627 636 607 463 236 116 45 91
903 1472 1619 1396 1215 1017 1067 1074 1036 988 917 907 887 752 722 730 621 301 175 167 272 498
967 994 730 692 530 363 388 238 145 574 809 874 993 906 809 838 452 162 234 516 673 682
311 411 473 282 87 0 0 0 0 0 9 673 827 766 661 577 300 266 522 693 718 585
1 0 8 0 0 0 0 0 0 0 0 10 586 634 485 394 600 630 771 795 841 486
0 0 1 0 0 0 0 0 0 0 0 0 60 118 122 140 183 254 698 678 774 583
35 0 0 1 0 0 2 2 0 0 0 2 2 10 20 0 0 1 224 513 471 482
0 0 0 0 0 0 0 0 0 0 0 0 0 0 0 0 0 0 48 106 139 219
0 0 0 0 0 0 0 0 0 0 1 4 6 0 0 0 0 1 6 37 45 83
CIN
-416 -384 -398 -400 -360 -332 -298 -256 -228 -182 -154 -137 -137 -108 -106 -93 -98 -53 -28 -13 -56 -75
-325 -365 -390 -459 -413 -362 -343 -286 -287 -238 -180 -157 -143 -129 -128 -91 -84 -71 -62 -70 -87 -69
-252 -334 -356 -400 -431 -395 -370 -298 -289 -266 -218 -179 -162 -155 -156 -132 -119 -81 -79 -83 -71 -67
-207 -272 -293 -350 -379 -407 -395 -318 -281 -253 -217 -173 -141 -149 -156 -154 -130 -82 -76 -97 -145 -74
-78 -123 -210 -261 -318 -407 -339 -321 -241 -211 -206 -186 -144 -145 -149 -146 -151 -105 -104 -101 -167 0
-142 -26 -91 -165 -231 -278 -295 -235 -223 -180 -166 -166 -153 -153 -142 -137 -110 -121 -155 -152 -213 -139
-119 -52 -20 -38 -65 -122 -157 -127 -128 -93 -91 -90 -119 -145 -135 -118 -115 -157 -198 -177 -72 -22
-71 -78 -150 -140 -204 -289 -323 -428 -479 -179 -57 -40 -73 -126 -132 -108 -153 -203 -162 -93 -52 -24
-116 -119 -148 -232 -361 0 0 0 0 0 -207 -74 -63 -114 -142 -117 -163 -139 -84 -85 -75 -50
0 0 -186 0 0 0 0 0 0 0 0 -147 -46 -117 -123 -131 -106 -74 -34 -23 -49 -110
0 0 0 0 0 0 0 0 0 0 0 -1 -136 -128 -229 -154 -131 -145 -82 -37 -45 -51
-82 -114 0 -1 -5 0 -476 -388 0 0 0 0 -3 -25 -97 0 0 -77 -89 -55 -74 -53
0 0 0 0 0 0 -47 0 0 0 0 -4 0 0 0 0 0 0 -96 -87 -74 -87
0 0 0 0 0 0 0 0 0 0 0 -57 -36 -15 0 0 -7 -16 -70 -83 -92 -108
Wind_Speed
26 24 27 19 15 15 15 15 11 14 14 14 12 11 6 6 8 8 11 26 28 31
31 26 28 26 20 18 15 12 11 10 13 14 12 9 7 9 7 9 12 24 13 11
28 33 26 32 27 22 21 18 14 11 9 9 9 8 7 6 4 7 11 15 17 13
29 36 32 29 34 27 22 19 16 14 12 10 8 8 6 6 3 3 4 5 8 7
39 39 32 29 31 30 26 24 21 19 16 13 11 8 7 6 3 3 3 4 6 5
37 38 36 33 29 30 28 26 25 23 20 18 16 13 9 7 5 5 5 5 6 6
33 29 35 32 27 24 26 26 28 29 26 24 21 19 16 11 10 10 8 7 7 9
22 19 19 20 20 20 19 21 22 29 31 29 24 21 19 17 15 13 14 10 8 9
17 16 13 13 16 19 21 20 20 26 32 31 29 24 20 19 17 16 14 14 12 12
20 20 20 21 20 23 25 27 25 25 31 36 30 29 25 22 23 22 13 13 12 18
16 20 26 27 25 23 23 25 28 29 33 35 31 27 32 28 23 25 14 20 16 14
13 12 15 18 19 20 20 19 14 12 14 27 31 17 35 35 32 29 21 23 25 24
16 17 16 17 19 20 18 17 19 21 18 23 20 26 29 33 28 29 30 27 25 23
14 15 16 16 17 19 18 16 17 19 18 21 22 20 25 28 25 24 28 26 26 23
Wind_Direction
248 245 254 248 236 214 212 211 218 212 211 211 213 217 254 264 223 232 249 265 270 270
257 248 248 250 246 253 249 241 236 228 216 213 213 214 223 219 214 196 191 198 208 238
259 255 248 255 253 254 262 264 265 254 242 226 210 209 205 214 212 190 186 184 187 198
264 260 256 256 258 257 260 259 257 259 261 256 234 217 216 206 237 237 191 180 185 202
262 260 258 257 255 257 259 262 263 266 262 258 260 247 230 220 244 252 256 270 295 275
264 261 259 259 259 259 258 261 263 266 265 265 266 269 255 262 267 279 287 294 299 298
268 268 258 258 258 260 260 263 268 270 269 269 272 274 277 271 280 293 295 302 306 310
270 263 259 254 252 256 261 266 273 274 273 271 268 269 270 272 279 282 289 297 302 310
275 267 252 251 258 262 266 273 274 281 277 270 267 264 263 266 270 276 280 286 293 303
281 275 268 270 272 272 276 274 271 279 283 276 268 259 259 261 268 273 276 278 284 287
299 283 269 269 273 275 281 290 284 277 274 274 271 262 260 256 260 267 270 278 281 282
322 335 288 275 278 283 291 295 313 305 289 278 272 273 256 255 263 269 268 274 279 277
306 305 312 300 292 296 308 301 297 301 305 291 286 268 263 258 263 269 270 271 275 274
308 316 318 314 306 292 295 308 309 300 300 292 284 274 263 262 266 270 271 269 269 275